[[{"header":{"parameterUnit":"m.s-1","parameterCategory":1,"la1":30.2991,"la2":30.254,"lo1":-89.0895,"lo2":-89.0444,"dy":0.0017,"dx":0.0017,"nx":28,"ny":28,"refTime":"2023-08-22T21:00:00:Z","depth":0,"parameterNumber":2,"parameterNumberName":"U-component_of_WINDS"},"data":[0,0,0,0,0,0,0,0,0,0,0,0,0,0,0,0,0,0,0,0,0,0,0,0,0,0,0,0,0,0,0,0,0,0,0,0,0,0,0,0,0,0,0,0,0,0,0,0,0,0,0,0,0,0,0,0,0,0,-1.9009,-1.9008,0,-1.8905,-1.8904,-1.8902,-1.8853,-1.8853,-1.8853,-1.8853,-1.8737,-1.8734,-1.8731,0,0,0,0,0,0,0,0,0,0,0,0,0,-1.9155,-1.9153,-1.9009,-1.9008,-1.9007,-1.8905,-1.8904,-1.8902,-1.8853,-1.8853,-1.8853,-1.8853,-1.8738,-1.8734,-1.8731,0,0,0,0,0,0,0,0,0,0,0,0,0,-1.9075,-1.9152,-1.9009,-1.897,-1.8966,-1.8905,-1.8904,-1.8902,-1.8853,-1.8853,-1.8853,-1.8853,-1.8739,-1.8735,-1.873,-1.8698,0,0,-1.8716,-1.8714,0,0,0,0,0,0,0,0,-1.908,-1.907,-1.8977,-1.8973,-1.8968,-1.8892,-1.8913,-1.8833,-1.8853,-1.8896,-1.8853,-1.8854,-1.8788,-1.8779,-1.8759,-1.8693,-1.8688,-1.8715,-1.8712,-1.871,-1.8709,0,0,0,0,0,0,0,-1.9086,-1.9074,-1.8968,-1.8976,-1.897,-1.8954,-1.8943,-1.8897,-1.8842,-1.8892,-1.8888,-1.8877,-1.8785,-1.8764,-1.8756,-1.8686,-1.8715,-1.8711,-1.8708,-1.8706,-1.8584,-1.8584,0,0,0,0,0,0,-1.9099,-1.9079,-1.8971,-1.8965,-1.9026,-1.8952,-1.8939,-1.8916,-1.8843,-1.8832,-1.8877,-1.8875,-1.8772,-1.8762,-1.8752,-1.8707,-1.871,-1.8706,-1.8703,-1.8585,-1.8584,-1.8584,0,0,0,0,0,0,-1.9102,-1.909,-1.8975,-1.9021,-1.9005,-1.8949,-1.8924,-1.8914,-1.8893,-1.8831,-1.882,-1.8866,-1.8772,-1.8758,-1.8712,-1.8703,-1.8704,-1.8699,-1.8585,-1.8584,-1.8584,-1.862,0,0,0,0,0,0,-1.9107,-1.9091,-1.9081,-1.9021,-1.9003,-1.894,-1.8923,-1.8912,-1.8886,-1.8882,-1.8818,-1.8807,-1.8771,-1.8719,-1.8707,-1.8696,-1.8696,-1.8586,-1.8585,-1.8584,-1.862,-1.8621,-1.8622,0,0,0,0,0,-1.9112,-1.9094,-1.9081,-1.9068,-1.899,-1.894,-1.8929,-1.889,-1.8885,-1.8873,-1.8833,-1.8809,-1.8706,-1.8715,-1.8701,-1.8688,-1.8586,-1.8585,-1.8584,-1.8619,-1.8621,-1.8622,0,0,0,0,0,0,-1.9153,-1.9086,-1.9071,-1.9034,-1.8993,-1.8932,-1.8916,-1.8894,-1.8852,-1.885,-1.88,-1.8786,-1.8743,-1.8711,-1.8722,-1.8652,-1.8643,-1.864,-1.8675,-1.8676,-1.8677,-1.8685,-1.8692,0,0,0,0,0,-1.9158,-1.9126,-1.9068,-1.9041,-1.9022,-1.8972,-1.8949,-1.8923,-1.8877,-1.8859,-1.8816,-1.877,-1.8727,-1.87,-1.8657,-1.8615,-1.8598,-1.8599,-1.86,-1.8601,-1.8598,-1.857,-1.8569,-1.8581,-1.8581,-1.8581,0,0,-1.9167,-1.9126,-1.9109,-1.9048,-1.9014,-1.8978,-1.8958,-1.8922,-1.8895,-1.8853,-1.8807,-1.8773,-1.8718,-1.8673,-1.8651,-1.8645,-1.8591,-1.86,-1.8602,-1.8598,-1.8569,-1.8568,-1.8567,-1.858,-1.858,-1.858,0,0,-1.9166,-1.9133,-1.9106,-1.9072,-1.9021,-1.8988,-1.8982,-1.8923,-1.89,-1.8853,-1.882,-1.8785,-1.8712,-1.8674,-1.8645,-1.8627,-1.8602,-1.8614,-1.862,-1.8594,-1.8593,-1.8592,-1.8583,-1.858,-1.8611,-1.8611,-1.8611,0,-1.9183,-1.9132,-1.9094,-1.906,-1.9032,-1.8995,-1.8965,-1.8933,-1.8869,-1.8849,-1.8844,-1.8751,-1.8712,-1.8656,-1.8651,-1.863,-1.8617,-1.8621,-1.8597,-1.8595,-1.8593,-1.8584,-1.8581,-1.8613,-1.8613,-1.8613,-1.8613,0,-1.9154,-1.9119,-1.9103,-1.9045,-1.9015,-1.8983,-1.8937,-1.8911,-1.8886,-1.8852,-1.8802,-1.8754,-1.8699,-1.8684,-1.8659,-1.8623,-1.8621,-1.8607,-1.8597,-1.8595,-1.8585,-1.8581,-1.8615,-1.8615,-1.8614,-1.8614,0,0,-1.9177,-1.9098,-1.9092,-1.9064,-1.9004,-1.8975,-1.8939,-1.8888,-1.8865,-1.8822,-1.8788,-1.8727,-1.8713,-1.868,-1.865,-1.8627,-1.8612,-1.8614,-1.8612,-1.8614,-1.8566,-1.8576,-1.8573,-1.8596,-1.8595,-1.8594,-1.857,0,-1.9166,-1.9105,-1.9068,-1.902,-1.8985,-1.8948,-1.8916,-1.8873,-1.884,-1.8802,-1.8764,-1.8721,-1.8707,-1.8686,-1.8662,-1.8619,-1.8601,-1.862,-1.856,-1.8558,-1.8574,-1.8568,-1.8579,-1.8559,-1.8566,-1.8565,-1.8565,0,-1.9146,-1.9106,-1.9055,-1.8997,-1.8981,-1.8954,-1.8902,-1.8868,-1.8818,-1.8794,-1.8757,-1.8727,-1.8683,-1.8678,-1.8615,-1.8628,-1.8601,-1.8576,-1.8574,-1.8566,-1.8561,-1.8558,-1.8552,-1.8548,-1.8559,-1.8559,-1.856,0,-1.9165,-1.9098,-1.9058,-1.9035,-1.8967,-1.8948,-1.8918,-1.8868,-1.8839,-1.8793,-1.8773,-1.8722,-1.8693,-1.8652,-1.8606,-1.8607,-1.8547,-1.8538,-1.8523,-1.8524,-1.8511,-1.8513,-1.8499,-1.8497,-1.8497,-1.8497,-1.8497,0,-1.9156,-1.9126,-1.9066,-1.9041,-1.9004,-1.8961,-1.8924,-1.8891,-1.8846,-1.8811,-1.8775,-1.8742,-1.8685,-1.8643,-1.8607,-1.8559,-1.8546,-1.8523,-1.8514,-1.8526,-1.8529,-1.8507,-1.8506,-1.8496,-1.8496,-1.8496,-1.8496,0,-1.9171,-1.913,-1.9084,-1.9024,-1.9007,-1.8983,-1.8929,-1.8901,-1.8866,-1.8822,-1.8808,-1.8751,-1.8701,-1.8652,-1.8583,-1.8558,-1.8509,-1.8497,-1.8527,-1.8522,-1.8509,-1.851,-1.8479,-1.8472,-1.8476,-1.8476,-1.8477,0,-1.9168,-1.9145,-1.9082,-1.9057,-1.9029,-1.899,-1.896,-1.8915,-1.8885,-1.8824,-1.8802,-1.875,-1.8705,-1.8625,-1.8575,-1.8521,-1.8506,-1.8499,-1.8498,-1.851,-1.8503,-1.8505,-1.8501,-1.85,-1.85,-1.8501,-1.8501,0,-1.9166,-1.9147,-1.9108,-1.9061,-1.9027,-1.8987,-1.8945,-1.8926,-1.8872,-1.8839,-1.8789,-1.8754,-1.8684,-1.8631,-1.8571,-1.8535,-1.8507,-1.8502,-1.8495,-1.8506,-1.8524,-1.8512,-1.8529,-1.8502,-1.8502,-1.8502,-1.8502,-1.8502,-1.9171,-1.9147,-1.9099,-1.9055,-1.902,-1.8981,-1.8952,-1.8913,-1.8871,-1.8813,-1.8787,-1.8735,-1.8681,-1.8598,-1.8563,-1.8518,-1.8511,-1.8502,-1.8499,-1.8498,-1.8499,-1.8533,-1.8507,-1.8507,-1.8507,-1.8507,-1.8507,0,-1.9165,-1.9132,-1.9093,-1.9037,-1.9002,-1.8982,-1.8934,-1.8904,-1.886,-1.8814,-1.8771,-1.871,-1.8658,-1.8603,-1.8546,-1.8521,-1.8506,-1.8507,-1.8508,-1.8499,-1.851,-1.852,-1.852,-1.852,-1.852,-1.852,-1.852,-1.852,-1.9159,-1.9117,-1.9091,-1.9029,-1.8994,-1.8946,-1.892,-1.8882,-1.8845,-1.878,-1.8738,-1.8703,-1.8652,-1.8591,-1.854,-1.8524,-1.8504,-1.8508,-1.8489,-1.85,-1.8499,-1.8498,-1.8508,-1.8505,-1.8505,-1.8482,-1.8482,-1.8482]},{"header":{"parameterUnit":"m.s-1","parameterCategory":1,"la1":30.2991,"la2":30.254,"lo1":-89.0895,"lo2":-89.0444,"dy":0.0017,"dx":0.0017,"nx":28,"ny":28,"refTime":"2023-08-22T21:00:00:Z","depth":0,"parameterNumber":3,"parameterNumberName":"V-component_of_WINDS"},"data":[0,0,0,0,0,0,0,0,0,0,0,0,0,0,0,0,0,0,0,0,0,0,0,0,0,0,0,0,0,0,0,0,0,0,0,0,0,0,0,0,0,0,0,0,0,0,0,0,0,0,0,0,0,0,0,0,0,0,3.2337,3.2339,0,3.2535,3.2537,3.2539,3.2517,3.2514,3.2511,3.2508,3.271,3.2718,3.2726,0,0,0,0,0,0,0,0,0,0,0,0,0,3.1941,3.1948,3.2337,3.2339,3.2342,3.2534,3.2537,3.254,3.2518,3.2514,3.251,3.2506,3.2707,3.2717,3.2727,0,0,0,0,0,0,0,0,0,0,0,0,0,3.2123,3.1951,3.2336,3.2354,3.2357,3.2534,3.2537,3.254,3.2518,3.2514,3.2509,3.2505,3.2704,3.2716,3.2728,3.29,0,0,3.2766,3.2772,0,0,0,0,0,0,0,0,3.2113,3.2138,3.2349,3.2353,3.2357,3.2496,3.2472,3.2661,3.252,3.2457,3.2508,3.2502,3.2643,3.266,3.2707,3.2909,3.2918,3.2767,3.2775,3.278,3.2784,0,0,0,0,0,0,0,3.21,3.2129,3.2415,3.2352,3.2357,3.2352,3.2373,3.2507,3.2574,3.2462,3.2461,3.2485,3.2644,3.2695,3.2712,3.2921,3.2767,3.2778,3.2786,3.2791,3.3277,3.3282,0,0,0,0,0,0,3.2083,3.2119,3.2409,3.2421,3.2221,3.2363,3.2386,3.2456,3.2572,3.2586,3.2489,3.2483,3.2676,3.2697,3.2719,3.293,3.278,3.2792,3.2799,3.3271,3.3278,3.3284,0,0,0,0,0,0,3.2075,3.2109,3.2401,3.227,3.2306,3.2375,3.2454,3.2463,3.2514,3.2592,3.2604,3.2529,3.2673,3.2701,3.2856,3.2936,3.2798,3.2809,3.3265,3.3273,3.3281,3.3351,0,0,0,0,0,0,3.2064,3.2106,3.2172,3.2271,3.2314,3.2534,3.2459,3.247,3.2536,3.253,3.2633,3.2646,3.2672,3.2837,3.2868,3.2951,3.2819,3.3258,3.3268,3.3278,3.3342,3.3361,3.3377,0,0,0,0,0,3.2049,3.2183,3.2175,3.221,3.2397,3.2539,3.2563,3.259,3.2542,3.2609,3.266,3.2642,3.2922,3.2853,3.2888,3.2976,3.3253,3.3265,3.3277,3.3334,3.3357,3.3376,0,0,0,0,0,0,3.2091,3.2196,3.2189,3.2359,3.244,3.2535,3.262,3.2613,3.271,3.2701,3.273,3.2754,3.291,3.2958,3.2879,3.3149,3.3081,3.3101,3.3113,3.3135,3.3152,3.3138,3.2829,0,0,0,0,0,3.2119,3.2226,3.2312,3.2454,3.2495,3.2551,3.2613,3.2628,3.2713,3.2747,3.2809,3.2893,3.3,3.307,3.3172,3.3348,3.3372,3.3426,3.3443,3.3457,3.3474,3.3574,3.36,3.3324,3.3324,3.3323,0,0,3.218,3.2251,3.2316,3.2464,3.2529,3.2639,3.258,3.2698,3.2781,3.2765,3.2916,3.2964,3.306,3.3226,3.3303,3.3271,3.3556,3.3473,3.3483,3.3493,3.3589,3.3615,3.3639,3.3332,3.333,3.3329,0,0,3.2347,3.2411,3.2537,3.2604,3.2703,3.2739,3.277,3.2866,3.2898,3.305,3.3041,3.314,3.3323,3.3392,3.3451,3.3647,3.3636,3.368,3.3771,3.3868,3.389,3.3909,3.3982,3.4007,3.3696,3.3696,3.3697,0,3.241,3.2576,3.2603,3.2724,3.279,3.2782,3.2911,3.2974,3.3101,3.3148,3.311,3.3341,3.3405,3.3589,3.3637,3.3684,3.3722,3.3669,3.3884,3.3904,3.3923,3.3993,3.402,3.3701,3.3701,3.37,3.37,0,3.265,3.2765,3.2855,3.298,3.3056,3.318,3.3227,3.3301,3.3309,3.3349,3.3505,3.3581,3.37,3.3744,3.3753,3.3931,3.3909,3.3877,3.381,3.3954,3.402,3.4046,3.3708,3.3707,3.3705,3.3704,0,0,3.2849,3.2988,3.3021,3.3079,3.3188,3.3278,3.3403,3.352,3.3584,3.3672,3.3779,3.3935,3.3908,3.3975,3.3991,3.4076,3.423,3.4035,3.4037,3.4071,3.4435,3.4459,3.4489,3.4222,3.4227,3.4232,3.4427,0,3.3029,3.325,3.3278,3.3474,3.3583,3.3577,3.3686,3.3766,3.3808,3.3906,3.3951,3.4063,3.4017,3.4058,3.4141,3.4193,3.4304,3.4179,3.4324,3.4328,3.4302,3.4524,3.4549,3.4731,3.4453,3.4457,3.4461,0,3.3268,3.3365,3.3573,3.367,3.3717,3.3814,3.3925,3.4019,3.411,3.4134,3.4211,3.4217,3.4347,3.4273,3.4454,3.4369,3.4429,3.4464,3.4472,3.4488,3.4405,3.4548,3.4789,3.4817,3.4501,3.4498,3.4495,0,3.3396,3.3578,3.3726,3.3776,3.3892,3.3961,3.4013,3.4099,3.4169,3.4266,3.4312,3.4422,3.4483,3.4569,3.4606,3.4548,3.4786,3.4714,3.4812,3.4811,3.4863,3.486,3.5119,3.4898,3.4898,3.4897,3.4897,0,3.3595,3.3723,3.3786,3.3877,3.4021,3.4053,3.4194,3.4243,3.4321,3.4422,3.4423,3.4519,3.456,3.4663,3.4692,3.4839,3.4866,3.489,3.4897,3.4892,3.4889,3.4934,3.4923,3.4905,3.4903,3.4902,3.49,0,3.3763,3.3809,3.3971,3.4069,3.4097,3.4199,3.4283,3.4372,3.4413,3.4542,3.4574,3.4639,3.476,3.4805,3.4951,3.4971,3.5142,3.5137,3.5112,3.5114,3.521,3.5202,3.551,3.5553,3.53,3.5303,3.5305,0,3.3888,3.3986,3.4096,3.4164,3.4219,3.4329,3.4401,3.4436,3.451,3.4623,3.4699,3.482,3.4918,3.5112,3.5173,3.5286,3.5285,3.5385,3.5302,3.5295,3.529,3.5285,3.5296,3.5401,3.5404,3.5406,3.5407,0,3.4106,3.4125,3.4228,3.4341,3.4427,3.4517,3.4604,3.466,3.4709,3.4793,3.4917,3.4994,3.5145,3.5265,3.5382,3.5435,3.5431,3.5433,3.5462,3.5459,3.5442,3.5455,3.5157,3.5426,3.5424,3.5423,3.5422,3.5421,3.4258,3.4347,3.4439,3.4554,3.4624,3.4706,3.4796,3.4849,3.4953,3.508,3.5094,3.5228,3.5319,3.5475,3.5534,3.5641,3.5614,3.5655,3.5666,3.5676,3.5685,3.5423,3.5661,3.5661,3.566,3.566,3.566,0,3.4479,3.4538,3.4645,3.4768,3.486,3.4847,3.4943,3.5021,3.514,3.5225,3.5322,3.5466,3.5584,3.5654,3.5773,3.5844,3.5846,3.5875,3.5871,3.5884,3.57,3.5665,3.5872,3.5872,3.5872,3.5872,3.5872,3.5872,3.4605,3.4756,3.4786,3.4971,3.5029,3.5162,3.5218,3.5295,3.5363,3.5525,3.5623,3.5668,3.5748,3.5872,3.598,3.5998,3.6043,3.6075,3.6091,3.5918,3.5897,3.5876,3.5843,3.6084,3.6084,3.6266,3.6268,3.6269]}]]